CZ-6A DEB, 60709

Orbit data source: Space-Track

CZ-6A DEB, 60709 is space debris in LEO originally from a launch on Tue, 06 Aug 2024 UTC launched from the Taiyaun Space Center, China (TSC). Debris objects in space refer to the collection of defunct objects orbiting the Earth. Examples of debris include non-operational satellites, rocket bodies, and fragments generated from explosions, collisions, or faulty payload assembly.

Loading next visibility...
Identifier
60709, 2024-140DN
Orbit
LEO
Country
Flag of CNCN / PRC
Related business
Manufacturer
SAST
Mission
Spacecraft
Bus & Motor
Unknown
Mass
Unknown
Launch date (UTC)
2024-08-06 (2 years ago)
Launch vehicle
Unknown
Launch site
Taiyaun Space Center, China (TSC)
Object type
Payload
Rocket body
Debris
Shape & HBR
Unknown shape, 0.3 m
Radar Cross Section
Medium (>0.1 m² and <1 m²)

Expand to show TLE details & history
Last TLE update: 17 hours ago

TLE from 17 hours ago
0 CZ-6A DEB
1 60709U 24140DN  26171.28042613  .00000665  00000-0  26524-3 0  9995
2 60709  89.0013 273.5135 0018227 157.0103 203.1911 14.27363553 96515
Epoch: 2026-06-20T06:43Z
TLE epoch observation values (Epoch: 2026-06-20T06:43:48.817Z)
Latitude
-0.00003°
Longitude
-95.93722°
Altitude
815.654 km
Speed
7.439 km/s
True Right ascension
18h 14m 03s
True Declination
0° 00' 00"
Sunlit
Object was in full shadow at epoch
Visualization orbit readout
Latitude
Unknown
Longitude
Unknown
Altitude
Unknown
Speed
Unknown
Apparent Right ascension
Unknown
Apparent Declination
Unknown
Sunlit
N/A
Visualization observer readout
Local Sidereal Time
10:19:48
Azimuth
Unknown
Elevation
Unknown
Doppler factor
Unknown
Orbital elements
Apogee altitude
810.577 km
Perigee altitude
784.419 km
Semi-major axis
7,175.635 km
Eccentricity
0.00182
Inclination
89.0013°
RAAN
273.5135°
Arg. of periapsis
157.0103°
True anomaly
203.10902°
Mean anomaly
203.1911°
Eccentric anomaly
203.15004°
Mean motion
3.57069 °/min
Orbital period
100.82 mins
BSTAR
0.00026524
Loading maneuver chart data...
Computing Atmospheric mass density...
Loading historical data...
Loading historical data...
Loading historical data...
Loading historical data...
Loading historical data...
Loading historical data...
Loading historical data...

Documentation

Showing up to 5 results
|